sat.trackr.live / text

‹ back to catalog

STARLINK-30509

NORAD 57977 · 2023-151P

PAYLOAD ACTIVE UNKNOWN

§ Identity

Operator
Country
US
Launch date
2023-09-30
Launch site
AFETR
Launch vehicle
Mass (kg)
RCS (m²)

Purposes: comms

External: N2YO · Heavens-Above · Gunter

§ Orbital elements

Epoch: 2026-05-25T01:28:41.903904Z

Period
94.27 min
Inclination
42.9971°
Eccentricity
0.0001259
Mean motion
15.27575254 rev/d
Perigee alt
482.2 km
Apogee alt
483.9 km
Semi-major
6,861.2 km
B*
3.5907e-5
RAAN
279.3671°
Arg perigee
267.2223°
Mean anomaly
92.8485°
Rev number
14,727

§ Raw data

STARLINK-305091 57977U 23151P   26145.06159611  .00000726  00000+0  35907-4 0  99962 57977  42.9971 279.3671 0001259 267.2223  92.8485 15.27575254147275

JSON: /api/v1/satellites/57977 · /tle

For live sub-satellite position, see the globe view (requires WebGL).

§ Visibility from observer

Set your observer location to see the next 7 days of passes ≥ 10°. The values pass through the URL so the page stays shareable.

No JS? Fill the form by hand. The geolocation button needs JavaScript.